Simultaneous Nadir Overpasses (SNOs) Predictions

Prediction of SNOs between LANDSAT-8 and METOP-B Satellite Orbit:

Table of predicted SNOs for the next 14.0 days since TLE Epoch: 6/30/2017
Index Date (LANDSAT-8) Time (LANDSAT-8) Lat,Lon (LANDSAT-8) SZA (LANDSAT-8 ) Date (METOP-B) Time (METOP-B) Lat,Lon (METOP-B) SZA (METOP-B ) Distance(km) Time Diff (sec)
1 07/03/2017 05:02:50 -81.16, -35.09 119.66 07/03/2017 05:01:45 -81.16, -35.19 119.70 1.69 65
2 07/03/2017 05:52:15 81.19, 133.03 60.42 07/03/2017 05:52:24 81.19, 132.90 60.41 2.33 9
3 07/06/2017 00:37:05 -81.18, 31.65 119.37 07/06/2017 00:36:05 -81.17, 31.47 119.42 3.16 60
4 07/06/2017 01:26:31 81.19,-160.63 60.65 07/06/2017 01:26:44 81.19,-160.46 60.68 3.01 13
5 07/08/2017 20:11:21 -81.18, 98.00 119.09 07/08/2017 20:10:25 -81.18, 98.13 119.10 2.26 56
6 07/08/2017 21:00:46 81.20, -93.93 60.98 07/08/2017 21:01:04 81.20, -93.83 61.00 1.81 18
7 07/11/2017 15:45:36 -81.17, 164.33 118.76 07/11/2017 15:44:45 -81.17, 164.40 118.77 1.33 51
8 07/11/2017 16:35:01 81.19, -27.63 61.31 07/11/2017 16:35:24 81.20, -27.59 61.33 0.82 23
9 07/14/2017 11:19:51 -81.18,-128.99 118.32 07/14/2017 11:19:05 -81.18,-128.96 118.34 0.48 46




NCC Satellite Simultaneous Nadir Overpasses (SNOs) Prediction Service
